YD2CLX-15 Weather Reports


Display with metric or nautical units.
time (UTC)temp
F
wind
direction
speed
MPH
gust
MPH
rain 1hr
in
rain 24hr
in
rain mn
in
humidity
%
barometer
mb
20260505204605 56 70 1.0 2.0 0.00 0.00 0.00 96 1011.0
20260505203101 58 70 1.0 2.0 0.00 0.00 0.00 96 1011.0
20260505201602 60 70 1.0 2.0 0.00 0.00 0.00 96 1010.0
20260505200110 62 70 1.0 2.0 0.00 0.00 0.00 96 1011.0
20260505194600 64 70 1.0 2.0 0.00 0.00 0.00 96 1011.0
20260505193111 66 70 1.0 2.0 0.00 0.00 0.00 96 1011.0
20260505191601 54 34 3.0 3.0 0.00 0.00 0.00 95 1011.0
20260505190104 56 34 3.0 3.0 0.00 0.00 0.00 95 1011.0
20260505184601 58 34 3.0 3.0 0.00 0.00 0.00 95 1011.0
20260505183102 60 34 3.0 3.0 0.00 0.00 0.00 95 1011.0
20260505181606 62 34 3.0 3.0 0.00 0.00 0.00 95 1011.0
20260505180103 64 34 3.0 3.0 0.00 0.00 0.00 95 1011.0
20260505174606 66 34 3.0 3.0 0.00 0.00 0.00 95 1011.0
20260505173104 55 35 1.0 2.0 0.00 0.00 0.00 96 1011.0
20260505171603 57 35 1.0 2.0 0.00 0.00 0.00 96 1012.0
20260505170108 59 35 1.0 2.0 0.00 0.00 0.00 96 1012.0
20260505164606 61 35 1.0 2.0 0.00 0.00 0.00 96 1012.0
20260505164601 61 35 1.0 2.0 0.00 0.00 0.00 96 1012.0
20260505163103 63 35 1.0 2.0 0.00 0.00 0.00 96 1012.0
20260505161601 65 35 1.0 2.0 0.00 0.00 0.00 96 1012.0
20260505160117 67 35 1.0 2.0 0.00 0.00 0.00 96 1012.0
20260505153104 57 52 2.0 2.0 0.00 0.00 0.00 95 1012.0
20260505151604 59 52 2.0 2.0 0.00 0.00 0.00 95 1012.0
20260505150111 61 52 2.0 2.0 0.00 0.00 0.00 95 1013.0
20260505140108 68 52 2.0 2.0 0.00 0.00 0.00 95 1013.0
20260505130104 58 64 3.0 3.0 0.00 0.00 0.00 94 1012.0
20260505124604 60 64 3.0 3.0 0.00 0.00 0.00 94 1012.0
20260505123106 62 64 3.0 3.0 0.00 0.00 0.00 94 1012.0
20260505121601 64 64 3.0 3.0 0.00 0.00 0.00 94 1011.0
20260505120103 66 64 3.0 3.0 0.00 0.00 0.00 94 1011.0
20260505114600 68 64 3.0 3.0 0.00 0.00 0.00 94 1011.0
20260505113106 57 115 1.0 1.0 0.00 0.00 0.00 92 1011.0
20260505111559 59 115 1.0 1.0 0.00 0.00 0.00 92 1010.0
20260505110107 61 115 1.0 1.0 0.00 0.00 0.00 92 1010.0
20260505101558 67 115 1.0 1.0 0.00 0.00 0.00 92 1010.0
20260505094557 60 172 1.0 1.0 0.00 0.00 0.00 89 1010.0
20260505093058 62 172 1.0 1.0 0.00 0.00 0.00 89 1010.0
20260505091557 64 172 1.0 1.0 0.00 0.00 0.00 89 1010.0
20260505090059 66 172 1.0 1.0 0.00 0.00 0.00 89 1010.0
20260505084556 68 172 1.0 1.0 0.00 0.00 0.00 89 1010.0
20260505083101 70 172 1.0 1.0 0.04 0.00 0.00 89 1010.0
20260505081600 71 194 2.0 3.0 0.00 0.00 0.00 89 1010.0
20260505074600 71 194 2.0 3.0 0.00 0.00 0.00 88 1010.0
20260505073101 71 194 2.0 3.0 0.04 0.00 0.00 88 1010.0
20260505071601 71 188 2.0 4.0 0.00 0.00 0.00 88 1010.0
20260505064601 71 188 2.0 4.0 0.00 0.00 0.00 87 1010.0
20260505063103 71 188 2.0 4.0 0.05 0.00 0.00 87 1010.0
20260505061601 71 165 2.0 3.0 0.00 0.00 0.00 86 1010.0
20260505060105 71 165 2.0 3.0 0.00 0.00 0.00 86 1010.0
20260505054602 71 165 2.0 3.0 0.00 0.00 0.00 86 1010.0
20260505053104 70 164 3.0 3.0 0.06 0.00 0.00 85 1010.0
20260505051602 73 170 3.0 3.0 0.00 0.00 0.00 86 1011.0
20260505050107 73 170 3.0 3.0 0.00 0.00 0.00 84 1011.0
20260505041603 72 173 3.0 3.0 0.02 0.00 0.00 87 1011.0
20260505040109 73 173 3.0 3.0 0.00 0.00 0.00 81 1011.0
20260505034604 72 173 3.0 3.0 0.00 0.00 0.00 82 1011.0
20260505033110 72 173 3.0 3.0 0.02 0.00 0.00 80 1011.0
20260505031605 72 160 3.0 3.0 0.00 0.00 0.00 87 1012.0
20260505030113 72 160 3.0 3.0 0.00 0.00 0.00 82 1012.0
20260505024603 72 160 3.0 3.0 0.00 0.00 0.00 82 1012.0
20260505023110 71 160 3.0 3.0 0.01 0.00 0.00 82 1012.0
20260505021605 70 143 2.0 3.0 0.00 0.00 0.00 88 1012.0
20260505020120 70 143 2.0 3.0 0.00 0.00 0.00 88 1012.0
20260505014609 71 143 2.0 3.0 0.00 0.00 0.00 85 1012.0
20260505013116 70 143 2.0 3.0 0.00 0.00 0.00 85 1012.0
20260505011606 68 116 2.0 2.0 0.00 0.00 0.00 91 1012.0
20260505010117 68 116 2.0 2.0 0.00 0.00 0.00 88 1012.0
20260505004607 68 116 2.0 2.0 0.00 0.00 0.00 89 1012.0
20260505003117 68 116 2.0 2.0 0.00 0.00 0.00 87 1012.0
20260505001605 67 62 1.0 2.0 0.00 0.00 0.00 91 1012.0
20260505000116 67 62 1.0 2.0 0.00 0.00 0.00 91 1012.0
20260504234606 67 56 2.0 2.0 0.00 0.00 0.00 91 1011.0
20260504233115 67 56 2.0 2.0 0.00 0.00 0.00 92 1011.0
20260504231608 66 27 3.0 3.0 0.00 0.00 0.00 94 1011.0
20260504230123 66 27 3.0 3.0 0.00 0.00 0.00 94 1011.0
20260504224604 66 27 3.0 3.0 0.00 0.00 0.00 93 1011.0
20260504223110 66 27 3.0 3.0 0.00 0.00 0.00 93 1011.0
20260504221606 65 19 3.0 3.0 0.00 0.00 0.00 94 1011.0
20260504220109 66 19 3.0 3.0 0.00 0.00 0.00 93 1011.0
20260504214602 66 19 3.0 3.0 0.00 0.00 0.00 93 1011.0
20260504213105 66 19 3.0 3.0 0.00 0.00 0.00 93 1011.0
20260504211605 65 23 3.0 2.0 0.00 0.00 0.00 94 1010.0
20260504210110 65 23 3.0 2.0 0.00 0.00 0.00 94 1011.0